Location: Kalberh�ni
(46.4610°N, 7.2453°E)
Time: 04:44:39
(UTC+00:00)

Cosmos 2333 Rocket - Pass Details

Date: 25 October 2021
Orbit: 837 x 865 km, 70.8° (Epoch: 05 December)

Event Time Altitude Azimuth Distance (km) Brightness Sun altitude
Exits shadow 03:14:05 - 344° (NNW) 2,698 4.8 -29.5°
Reaches altitude 10° 03:14:38 10° 346° (NNW) 2,507 4.6 -29.4°
Maximum altitude 03:19:56 36° 53° (NE) 1,339 3.6 -28.5°
Drops below altitude 10° 03:25:13 10° 119° (ESE) 2,503 5.2 -27.6°
Sets 03:27:52 0° 128° (SE) 3,437 5.9 -27.2°
